OBJECT J, 51832

Orbit data source: Space-Track

You're viewing an Uncataloged Satellite

Recently launched and/or uncataloged satellites may have evolving metadata. Metadata may include but not limited to: Owner, Maufacturer, Bus, Motor, and Mission.

OBJECT J, 51832 is a Chinese satellite in SSO that was launched on Sun, 27 Feb 2022 UTC via a CHANG ZHENG 8 launch vehicle from the Wenchang Satellite Launch Center (WSC). Unknown objects in Earth's orbit typically refer to objects detected orbiting the Earth but have not yet been identified or cataloged. These objects could be anything from previously untracked satellites, spent rocket stages, debris from satellite collisions, or even natural meteoroids temporarily captured by Earth's gravity.

Loading next visibility...
Identifier
51832, 2022-019J
Orbit
SSO
Country
Flag of CNCN / PRC
Related business
None
Manufacturer
Unknown
Mission
Civil Imaging
Bus & Motor
Unknown
Mass
Unknown
Launch date (UTC)
2022-02-27 (4 years ago)
Launch vehicle
CHANG ZHENG 8
Launch site
Wenchang Satellite Launch Center (WSC)
Object type
Unknown
Shape & HBR
Box + 2 Pan, 1.0 m
Radar Cross Section
0.583 m², Large (>1 m²)

Expand to show TLE details & history
Last TLE update: 4 hours ago

TLE from 4 hours ago
0 OBJECT J
1 51832U 22019J   26095.54215321  .00003629  00000-0  17071-3 0  9997
2 51832  97.3485 160.2248 0010287 118.9830 241.2438 15.20138154226765
Epoch: 2026-04-05T13:00Z
TLE epoch observation values (Epoch: 2026-04-05T13:00:42.037Z)
Latitude
0.00001°
Longitude
131.20356°
Altitude
511.929 km
Speed
7.606 km/s
True Right ascension
10h 40m 53s
True Declination
0° 00' 00"
Sunlit
Object was in full shadow at epoch
Visualization orbit readout
Latitude
Unknown
Longitude
Unknown
Altitude
Unknown
Speed
Unknown
Apparent Right ascension
Unknown
Apparent Declination
Unknown
Sunlit
N/A
Visualization observer readout
Local Sidereal Time
23:16:54
Azimuth
Unknown
Elevation
Unknown
Doppler factor
Unknown
Orbital elements
Apogee altitude
509.465 km
Perigee altitude
495.309 km
Semi-major axis
6,880.524 km
Eccentricity
0.00103
Inclination
97.3485°
RAAN
160.2248°
Arg. of periapsis
118.983°
True anomaly
241.14052°
Mean anomaly
241.2438°
Eccentric anomaly
241.19215°
Mean motion
3.80287 °/min
Orbital period
94.67 mins
BSTAR
0.00017071
Loading maneuver chart data...
Computing Atmospheric mass density...
Loading historical data...
Loading historical data...
Loading historical data...
Loading historical data...
Loading historical data...
Loading historical data...
Loading historical data...

Documentation

Showing up to 5 results
|